AirNav   Air Wisconsin Up To $57,000 Bonus
 
 1342 users online  

7N4 Honey Acres Airport
Clinton, Michigan, USA

GOING TO CLINTON?


FAA INFORMATION EFFECTIVE 25 FEBRUARY 2021

Location

FAA Identifier: 7N4
Lat/Long: 42-04-39.9000N 083-59-09.6850W
42-04.665000N 083-59.161417W
42.0777500,-83.9860236
(estimated)
Elevation: 825 ft. / 251 m (estimated)
Variation: 04W (1985)
From city: 1 mile W of CLINTON, MI
Time zone: UTC -5 (UTC -4 during Daylight Saving Time)
Zip code: 49236

Airport Operations

Airport use: Open to the public
Activation date: 07/1990
Control tower: no
ARTCC: CLEVELAND CENTER
FSS: LANSING FLIGHT SERVICE STATION
NOTAMs facility: LAN (NOTAM-D service available)
Attendance: IREG
Wind indicator: yes
Segmented circle: no

Airport Communications

CTAF: 122.9
WX ASOS at ADG (13 nm S): 118.375 (517-265-9089)
WX ASOS at ARB (14 nm NE): PHONE 734-668-7173

Nearby radio navigation aids

VOR radial/distance  VOR name  Freq  Var
CRLr277/23.6CARLETON VOR/DME115.7003W
SVMr224/26.4SALEM VORTAC114.3003W
DXOr260/28.7DETROIT VOR/DME113.4006W
LFDr093/34.7LITCHFIELD VOR/DME111.2005W

 
NDB name  Hdg/Dist  Freq  Var  ID
TECUMSEH307/5.223906WTCU - -.-. ..-
ADRIAN024/13.127806WADG .- -.. --.
GROSSE ILE275/37.141907WRYS .-. -.-- ...

Airport Services

Parking: tiedowns

Runway Information

Runway 18/36

Dimensions: 3800 x 90 ft. / 1158 x 27 m
Surface: turf, in good condition
Runway edge markings: RWY 36 THR & DSPLCD THR MKD WITH 3 FT YELLOW CONES.
RUNWAY 18  RUNWAY 36
Latitude: 42-04.977667N42-04.352333N
Longitude: 083-59.176000W083-59.146833W
Elevation: 825.0 ft.817.0 ft.
Traffic pattern: leftleft
Runway heading: 182 magnetic, 178 true002 magnetic, 358 true
Displaced threshold: 600 ft.600 ft.
Obstructions: 40 ft. trees, 106 ft. left of centerline32 ft. bldg, lighted, 129 ft. from runway, 55 ft. left of centerline, 4:1 slope to clear
APCH RATIO 8:1 AT DSPLCD THR OVER 80 FT TREE, 714 FT DSTC, 125 L.

Airport Ownership and Management from official FAA records

Ownership: Privately-owned
Owner: RAYMOND L. KUSSMAUL
12447 MATTHEWS HWY
CLINTON, MI 49236
Phone 517-902-3270
Manager: RAYMOND L. KUSSMAUL
12447 MATTHEWS HWY
CLINTON, MI 49236
Phone 517-902-3270

Airport Operational Statistics

Aircraft based on the field: 4
Single engine airplanes: 4
    
Aircraft operations: avg 38/month *
50% transient general aviation
50% local general aviation
* for 12-month period ending 31 December 2017

Additional Remarks

BUILDING & HNGR IN PRIMARY SFC.
RWY 36, +18 FT PLINE 430 FT FROM THR MKD WITH ORANGE BALLS.
RWY SOFT DURG SPRING THAW AND AFT HEAVY RAINS.
FOR CD CTC DETROIT APCH AT 800-499-8181.
DEER AND BIRDS ON & INVOF RWY.

Instrument Procedures

There are no published instrument procedures at 7N4.

Some nearby airports with instrument procedures:

KADG - Lenawee County Airport (13 nm S)
KARB - Ann Arbor Municipal Airport (14 nm NE)
KYIP - Willow Run Airport (22 nm NE)
KJXN - Jackson County Airport-Reynolds Field (24 nm NW)
KDUH - Toledo Suburban Airport (25 nm SE)
 
Loc | Ops | Rwys | IFR | FBO | Links
Com | Nav | Svcs | Stats | Notes
Area around 7N4 (Honey Acres Airport)
 
Road maps at: MapQuest Bing Google
 
Aerial photo
WARNING: Photo may not be current or correct
Aerial photo of 7N4 (Honey Acres Airport)
Credit: M. Coleman - LocalHangar.com

Do you have a better or more recent aerial photo of Honey Acres Airport that you would like to share? If so, please send us your photo.

 
Sectional chart

 
Airport distance calculator
Flying to Honey Acres Airport? Find the distance to fly.

From to 7N4

Sunrise and sunset
Times for 26-Feb-2021
 Local
(UTC-5)
 Zulu
(UTC)
Morning civil twilight06:4911:49
Sunrise07:1712:17
Sunset18:2123:21
Evening civil twilight18:4923:49

Current date and time
Zulu (UTC)  26-Feb-2021 20:59:25
Local (UTC-5)  26-Feb-2021 15:59:25
 
METAR
KADG 
13nm S 
262053Z AUTO 14007KT 10SM CLR 04/M07 A3016 RMK AO2 SLP225 T00441067 56044
KARB 
14nm NE 
734-668-7173
262053Z 17011G18KT 10SM CLR 05/M08 A3017 RMK AO2 SLP227 T00501078 56042
KYIP 
22nm NE 
262053Z 15011KT 10SM CLR 06/M07 A3019 RMK AO2 SLP227 T00611067 56039
KJXN 
24nm NW 
261956Z 13010G19KT 10SM CLR 05/M09 A3015 RMK AO2 SLP221 T00501094
KDUH 
26nm SE 
262035Z AUTO 09007KT 10SM CLR 03/M03 A3019 RMK AO2 T00311029
TAF
KYIP 
22nm NE 
261729Z 2618/2718 13010KT P6SM BKN250 FM270530 13008KT 6SM -RA BKN045 OVC080 TEMPO 2706/2708 6SM -FZRA OVC030 FM270800 17007KT 3SM -RA BR BKN016 OVC030 FM271200 22006KT 4SM BR OVC012 FM271700 22006KT P6SM BKN025
KJXN 
24nm NW 
261744Z 2618/2718 13010KT P6SM SKC FM270400 17006KT P6SM OVC050 FM270600 16007KT P6SM -RA OVC020 FM270800 20007KT 4SM -RA BR OVC009 FM271300 23006KT 3SM BR OVC006 FM271600 23007KT P6SM OVC007
NOTAMs
Click for the latest NOTAMs
NOTAMs are issued by the DoD/FAA and will open in a separate window not controlled by AirNav.

 

 
 

Where to Eat: Catering, Restaurants, Food shops

  
 Business Name 
 
 Contact 
 
 Services / Description 
 
Distance
 
Comments
  
Race Track Inn 517-456-7768
no information available

If you are affiliated with Race Track Inn and would like to show here your services, contact info, web link, logo, and more, click here
0.2 miles  
   write
McDonald's 517-456-8700
no information available

If you are affiliated with McDonald's and would like to show here your services, contact info, web link, logo, and more, click here
0.4 miles  
   write
 

Would you like to see your business listed on this page?

 If your business provides an interesting product or service to pilots, flight crews, aircraft, or users of the Honey Acres Airport, you should consider listing it here.  To start the listing process, click on the button below
 
Add a business
 

Other Pages about Honey Acres Airport

Page from the Michigan Airport Directory (PDF)
 
Update a link
 
Copyright © AirNav, LLC. All rights reserved. Privacy Policy  Contact